Mullan Pass, ID

1:33 AM PDT on October 17, 2019 (GMT -0700)
Mullan Pass

Weather History for KMLP - August, 2019

Change the Weather History Date:

Saturday, August 31, 2019

  Actual Average (WUND) Record (WUND)
Temperature  
Mean Temperature 64 °F -  
Max Temperature 73 °F - - (-1)
Min Temperature 55 °F - - (-1)
Degree Days  
Heating Degree Days 1    
Growing Degree Days 14 (Base 50)    
Moisture  
Dew Point 47 °F    
Average Humidity 58    
Maximum Humidity 86    
Minimum Humidity 34    
Precipitation  
Precipitation 0.00 in - - ()
Sea Level Pressure  
Sea Level Pressure 29.91 in    
Wind  
Wind Speed 4 mph (South)    
Max Wind Speed 6 mph    
Max Gust Speed -    
Visibility 10 miles    
Events      
Averages and records for this station are not official NWS values.
T = Trace of Precipitation, MM = Missing Value Source: NWS Daily Summary

Daily Weather History Graph

Daily Weather History Graph

Search for Another Location

Airport or City:

Astronomy

Aug. 31, 2019 Rise Set
Actual Time 6:00 AM PDT 7:25 PM PDT
Civil Twilight 5:28 AM PDT 7:56 PM PDT
Nautical Twilight 4:49 AM PDT 8:35 PM PDT
Astronomical Twilight 4:07 AM PDT 9:16 PM PDT
Moon 7:23 AM PDT (8/31) 8:34 PM PDT (8/31)
Length of Visible Light 14h 28m
Length of Day
13h 25m
Waxing Crescent, 3% of the Moon is Illuminated
Aug 31
Waxing Crescent
Sep 5
First Quarter
Sep 13
Full
Sep 21
Last Quarter
Sep 28
New

Hourly Weather History & Observations

Time (PDT) Temp. Dew Point Humidity Pressure Visibility Wind Dir Wind Speed Gust Speed Precip Events Conditions
12:53 AM 55.9 °F 51.1 °F 84% 29.96 in 10.0 mi South 4.6 mph - N/A   Partly Cloudy
1:53 AM 55.9 °F 51.1 °F 84% 29.96 in 10.0 mi South 4.6 mph - N/A   Clear
2:53 AM 55.9 °F 51.1 °F 84% 29.95 in 10.0 mi South 3.5 mph - N/A   Clear
3:53 AM 57.0 °F 51.1 °F 81% 29.93 in 10.0 mi South 3.5 mph - N/A   Clear
4:53 AM 55.9 °F 51.1 °F 84% 29.93 in 10.0 mi South 4.6 mph - N/A   Clear
5:53 AM 55.0 °F 51.1 °F 86% 29.94 in 10.0 mi SSE 3.5 mph - N/A   Clear
6:53 AM 55.0 °F 51.1 °F 86% 29.94 in 10.0 mi SSE 5.8 mph - N/A   Clear
7:53 AM 57.0 °F 51.1 °F 81% 29.93 in 10.0 mi SSE 5.8 mph - N/A   Clear
8:53 AM 60.1 °F 50.0 °F 69% 29.94 in 10.0 mi Variable 3.5 mph - N/A   Clear
9:53 AM 62.1 °F 52.0 °F 70% 29.93 in 10.0 mi Calm Calm - N/A   Clear
10:53 AM 64.0 °F 52.0 °F 65% 29.93 in 10.0 mi Calm Calm - N/A   Clear
11:53 AM 69.1 °F 50.0 °F 51% 29.91 in 10.0 mi Variable 4.6 mph - N/A   Clear
12:53 PM 70.0 °F 43.0 °F 38% 29.91 in 10.0 mi Variable 3.5 mph - N/A   Clear
1:53 PM 70.0 °F 42.1 °F 36% 29.90 in 10.0 mi Variable 4.6 mph - N/A   Partly Cloudy
2:53 PM 71.1 °F 43.0 °F 36% 29.88 in 10.0 mi Variable 4.6 mph - N/A   Partly Cloudy
3:53 PM 70.0 °F 42.1 °F 36% 29.88 in 10.0 mi Calm Calm - N/A   Partly Cloudy
4:53 PM 73.0 °F 43.0 °F 34% 29.87 in 10.0 mi Calm Calm - N/A   Scattered Clouds
5:53 PM 70.0 °F 43.0 °F 38% 29.87 in 10.0 mi Variable 4.6 mph - N/A   Clear
6:53 PM 68.0 °F 43.0 °F 40% 29.87 in 10.0 mi SSW 3.5 mph - N/A   Clear
7:53 PM 66.9 °F 42.1 °F 40% 29.87 in 10.0 mi SSW 5.8 mph - N/A   Clear
8:53 PM 66.9 °F 43.0 °F 42% 29.86 in 10.0 mi SW 5.8 mph - N/A   Clear
9:53 PM 64.9 °F 44.1 °F 47% 29.87 in 10.0 mi Calm Calm - N/A   Scattered Clouds
10:53 PM 66.0 °F 43.0 °F 43% 29.86 in 10.0 mi SSW 3.5 mph - N/A   Mostly Cloudy
11:53 PM 64.0 °F 44.1 °F 48% 29.84 in 10.0 mi SW 5.8 mph - N/A   Overcast